EW4554 Weather Reports


time (UTC)temp
F
wind
direction
speed
knots
gust
knots
rain 1hr
in
rain 24hr
in
rain mn
in
humidity
%
barometer
mb
20210920051532 58 42 0.0 0.0 0.00 0.00 0.00 91 1020.4
20210920050058 58 239 0.0 0.0 0.00 0.00 0.00 91 1020.4
20210920044642 57 239 0.0 0.0 0.00 0.00 0.00 90 1020.5
20210920043102 58 239 0.0 0.0 0.00 0.00 0.00 90 1020.5
20210920041537 58 239 0.0 0.0 0.00 0.00 0.00 89 1020.5
20210920040026 59 239 0.0 0.0 0.00 0.00 0.00 89 1020.4
20210920034554 59 239 0.0 0.0 0.00 0.01 0.00 89 1020.5
20210920033020 60 239 0.0 0.0 0.00 0.01 0.00 89 1020.5
20210920031518 60 239 0.0 0.0 0.00 0.01 0.00 90 1020.6
20210920030031 60 274 0.0 0.0 0.00 0.01 0.00 90 1020.7
20210920024531 60 303 0.0 0.0 0.00 0.01 0.00 90 1020.7
20210920023024 60 335 0.0 0.0 0.00 0.01 0.00 90 1020.7
20210920021513 60 313 0.0 2.6 0.00 0.01 0.00 90 1020.8
20210920020009 60 243 0.0 0.0 0.00 0.01 0.00 90 1020.8
20210920014511 60 243 0.0 0.0 0.00 0.01 0.00 90 1020.9
20210920013002 59 243 0.0 0.0 0.00 0.01 0.00 90 1020.9
20210920011500 59 243 0.0 0.0 0.00 0.01 0.00 90 1020.9
20210920010304 59 243 0.0 0.0 0.00 0.01 0.00 90 1020.9
20210920010011 59 243 0.0 0.0 0.00 0.01 0.00 90 1020.9
20210920004734 59 232 0.0 0.0 0.00 0.01 0.00 89 1020.9
20210920003105 60 232 0.0 0.0 0.00 0.01 0.00 89 1021.1
20210920001648 59 232 0.0 0.0 0.00 0.01 0.00 89 1021.2
20210920000128 60 232 0.0 0.0 0.00 0.01 0.00 89 1021.2
20210919234805 59 268 0.0 0.0 0.00 0.01 0.00 89 1021.2
20210919233110 59 210 0.0 0.0 0.00 0.01 0.00 88 1021.2
20210919231631 60 194 0.0 0.0 0.00 0.01 0.00 88 1021.3
20210919230111 59 206 0.0 0.0 0.00 0.01 0.00 88 1021.4
20210919224605 59 229 0.0 0.0 0.00 0.01 0.01 87 1021.5
20210919223150 59 288 0.0 0.0 0.00 0.01 0.01 87 1021.5
20210919221654 59 301 0.0 0.0 0.00 0.01 0.01 86 1021.4
20210919220100 60 221 0.0 0.0 0.00 0.01 0.01 85 1021.3
20210919214630 60 220 0.0 0.9 0.00 0.01 0.01 85 1021.3
20210919213102 60 233 0.0 0.0 0.00 0.01 0.01 85 1021.2
20210919211647 60 263 0.0 0.9 0.00 0.01 0.01 84 1021.3
20210919210057 60 263 0.0 0.0 0.00 0.01 0.01 84 1021.1
20210919204605 60 322 0.0 0.0 0.00 0.01 0.01 83 1021.1
20210919201834 61 243 0.0 0.0 0.00 0.01 0.01 82 1020.8
20210919200055 61 256 0.0 0.0 0.00 0.01 0.01 81 1020.7
20210919194625 62 321 0.0 0.0 0.00 0.01 0.01 80 1020.5
20210919193110 62 314 0.0 0.9 0.00 0.01 0.01 79 1020.3
20210919191652 63 323 0.0 0.9 0.00 0.01 0.01 78 1020.2
20210919190059 63 268 0.0 0.0 0.00 0.01 0.01 76 1020.1
20210919184547 64 268 0.0 0.9 0.00 0.01 0.01 75 1020.0
20210919183131 65 269 0.0 0.0 0.00 0.01 0.01 73 1019.9
20210919181739 67 269 0.0 0.0 0.00 0.01 0.01 72 1019.8
20210919180117 68 229 0.0 0.0 0.00 0.01 0.01 69 1019.7
20210919174648 69 229 0.0 0.0 0.00 0.01 0.01 67 1019.7
20210919173121 70 253 0.0 0.0 0.00 0.01 0.01 65 1019.6
20210919171606 72 253 0.0 0.0 0.00 0.01 0.01 61 1019.5
20210919170201 74 254 0.0 2.6 0.00 0.01 0.01 57 1019.4
20210919164556 75 255 0.0 0.0 0.00 0.01 0.01 55 1019.3
20210919163114 76 230 0.0 0.9 0.00 0.01 0.01 54 1019.3
20210919161636 78 283 0.0 0.0 0.00 0.01 0.01 53 1019.2
20210919160211 78 355 0.0 5.2 0.00 0.01 0.01 51 1019.1
20210919154613 79 325 0.0 2.6 0.00 0.01 0.01 50 1019.1
20210919153108 79 348 0.0 0.9 0.00 0.01 0.01 50 1019.1
20210919151642 80 313 0.9 3.5 0.00 0.01 0.01 52 1019.1
20210919150049 80 223 0.0 3.5 0.00 0.01 0.01 49 1019.1
20210919144544 80 236 0.0 2.6 0.00 0.01 0.01 48 1019.0
20210919143121 81 300 0.0 0.9 0.00 0.01 0.01 47 1019.1
20210919141624 81 350 0.0 5.2 0.00 0.01 0.01 49 1019.2
20210919140054 81 317 0.0 0.0 0.00 0.01 0.01 48 1019.3
20210919134606 81 340 0.0 0.0 0.00 0.01 0.01 50 1019.5
20210919133118 81 360 0.0 1.7 0.00 0.01 0.01 47 1019.5
20210919131537 80 299 0.0 0.0 0.00 0.01 0.01 50 1019.6
20210919130032 79 263 0.0 0.0 0.00 0.01 0.01 50 1019.7
20210919124544 78 211 0.0 1.7 0.00 0.01 0.01 51 1019.8
20210919123026 78 327 0.0 1.7 0.00 0.01 0.01 52 1020.0
20210919121611 77 214 0.0 0.9 0.00 0.01 0.01 55 1020.1
20210919120013 77 304 0.0 0.0 0.00 0.01 0.01 55 1020.4
20210919114522 76 309 0.0 0.0 0.00 0.01 0.01 58 1020.7
20210919113007 76 323 0.0 2.6 0.00 0.01 0.01 60 1020.8
20210919111529 74 23 0.0 1.7 0.00 0.01 0.01 62 1020.9
20210919110119 73 331 0.0 0.9 0.00 0.01 0.01 63 1021.0
20210919104643 72 315 0.0 0.9 0.00 0.01 0.01 62 1021.1
20210919103108 71 298 0.0 1.7 0.00 0.01 0.01 66 1021.4
20210919101616 70 271 0.0 2.6 0.00 0.01 0.01 68 1021.5
20210919100048 70 338 0.0 2.6 0.00 0.01 0.01 66 1021.4
20210919094600 69 250 0.0 4.3 0.00 0.01 0.01 68 1021.4
20210919093104 68 304 0.0 0.0 0.00 0.01 0.01 72 1021.5
20210919091602 67 254 0.0 3.5 0.00 0.01 0.01 74 1021.5
20210919090054 65 294 0.0 0.0 0.00 0.01 0.01 76 1021.5
20210919084537 64 236 0.0 0.0 0.00 0.01 0.01 80 1021.3
20210919083025 62 321 0.0 0.0 0.00 0.01 0.01 85 1021.2
20210919081521 61 287 0.0 0.0 0.00 0.01 0.01 90 1021.0
20210919080021 60 202 0.0 0.0 0.00 0.01 0.01 93 1020.9
20210919074526 58 322 0.0 0.0 0.00 0.01 0.01 94 1020.9
20210919073008 56 290 0.0 0.0 0.00 0.01 0.01 94 1020.8
20210919071648 54 65 0.0 0.0 0.00 0.01 0.01 93 1020.7
20210919070059 53 65 0.0 0.0 0.00 0.01 0.01 92 1020.5
20210919064637 53 65 0.0 0.0 0.00 0.01 0.01 92 1020.2
20210919063114 53 65 0.0 0.0 0.00 0.01 0.01 92 1020.0
20210919061638 53 65 0.0 0.0 0.00 0.01 0.01 92 1020.0
20210919060135 53 65 0.0 0.0 0.00 0.01 0.01 92 1019.9
20210919054845 53 65 0.0 0.0 0.00 0.01 0.01 93 1019.8
20210919053104 53 65 0.0 0.0 0.00 0.01 0.01 92 1019.8